Back to catalog

STARLINK-5467

AliveCommunicationsVLEO
NORAD 55660·PAYLOAD·🇺🇸 United States

Launched Feb 17, 2023 from Vandenberg Space Force Base

Loading…

Next Passes (next 24 hours)

TLE

FreshSource: CelesTrak SupGP

Epoch: Sep 14, 2026, 13:10 UTC

1 55660C 23021AJ  26257.54909722 -.00048968  00000+0 -41028-2 0  2570
2 55660  70.0022  48.1150 0003017 265.3955 251.1867 14.98364039    18

Track STARLINK-5467 in real time with AllMySat

Download on the App Store